Retour au catalogue

STARLINK-37956

ActifCommunicationsSSO
NORAD 69711·PAYLOAD·🇺🇸 United States

Lancé Jun 28, 2026 depuis Vandenberg Space Force Base

Loading…

Prochains Passages (prochaines 24 heures)

TLE

FraisSource: CelesTrak SupGP

Époque: Sep 15, 2026, 03:10 UTC

1 69711C 26147H   26258.13243056 -.00025206  00000+0 -78242-3 0  2581
2 69711  97.2838 294.5382 0001302  87.5737 114.8451 15.33453858    19

Suivez STARLINK-37956 en temps réel avec AllMySat

Download on the App Store